STPSAT-6

Last updated on Mon Oct 14 2024 00:02:41 GMT+0000 (Coordinated Universal Time)

1 49817U 21118A 24287.22410556 -.00000046 00000+0 00000+0 0 9999 2 49817 0.0400 83.2859 0001045 173.7664 94.1857 1.00269472 10426
UTC large
Height (km)
Speed (km/s)
/
Latitude / Longitude
Inclination (degrees)
Orbital Period (minutes)
Azimuth
Elevation
Range (km)
Doppler Factor

Next 0 passes for location: London (51.5072 / 0.1276)

Sorry there are no passes over London.